THOR ABLESTAR DEB, 516

Orbit data source: Space-Track

THOR ABLESTAR DEB, 516 is space debris in LEO originally from a launch on Thu, 29 Jun 1961 UTC launched from the Air Force Eastern Test Range (AFETR). Debris objects in space refer to the collection of defunct objects orbiting the Earth. Examples of debris include non-operational satellites, rocket bodies, and fragments generated from explosions, collisions, or faulty payload assembly.

Loading next visibility...
Identifier
516, 1961-015FT
Orbit
LEO
Country
Flag of USUS
Related business
Manufacturer
Unknown
Mission
Spacecraft
Bus & Motor
Unknown
Mass
Unknown
Launch date (UTC)
1961-06-29 (64 years ago)
Launch vehicle
Unknown
Launch site
Air Force Eastern Test Range (AFETR)
Object type
Payload
Rocket body
Debris
Shape & HBR
Unknown shape, 0.1 m
Radar Cross Section
Medium (>0.1 m² and <1 m²)

Expand to show TLE details & history
Last TLE update: 7 hours ago

TLE from 7 hours ago
0 THOR ABLESTAR DEB
1 00516U 61015FT  25311.26053389  .00000228  00000-0  23321-3 0  9999
2 00516  65.9959 348.4608 0090990 261.1216  97.9547 13.92652365257485
Epoch: 2025-11-07T06:15Z
TLE epoch observation values (Epoch: 2025-11-07T06:15:10.128Z)
Latitude
-0.00001°
Longitude
-152.03845°
Altitude
931.148 km
Speed
7.382 km/s
True Right ascension
23h 13m 50s
True Declination
0° 00' 00"
Sunlit
Object was in full shadow at epoch
Visualization orbit readout
Latitude
Unknown
Longitude
Unknown
Altitude
Unknown
Speed
Unknown
Apparent Right ascension
Unknown
Apparent Declination
Unknown
Sunlit
N/A
Visualization observer readout
Local Sidereal Time
09:04:44
Azimuth
Unknown
Elevation
Unknown
Doppler factor
Unknown
Orbital elements
Apogee altitude
984.222 km
Perigee altitude
851.45 km
Semi-major axis
7,295.973 km
Eccentricity
0.0091
Inclination
65.9959°
RAAN
348.4608°
Arg. of periapsis
261.1216°
True anomaly
98.98566°
Mean anomaly
97.9547°
Eccentric anomaly
98.47035°
Mean motion
3.48272 °/min
Orbital period
103.37 mins
BSTAR
0.00023321
Loading maneuver chart data...
Computing Atmospheric mass density...

Documentation

Showing up to 5 results
|